| time (UTC) | temp F | wind direction | speed knots | gust knots | rain 1hr in | rain 24hr in | rain mn in | humidity % | barometer mb |
| 20260504202503 | 69 | 233 | 2.6 | 11.3 | 0.00 | 0.00 | 0.00 | 36 | 1005.0 |
| 20260504202003 | 69 | 233 | 2.6 | 11.3 | 0.00 | 0.00 | 0.00 | 34 | 1005.2 |
| 20260504201503 | 69 | 245 | 2.6 | 7.8 | 0.00 | 0.00 | 0.00 | 34 | 1005.0 |
| 20260504201004 | 70 | 220 | 2.6 | 7.8 | 0.00 | 0.00 | 0.00 | 34 | 1005.0 |
| 20260504200503 | 71 | 206 | 1.7 | 7.8 | 0.00 | 0.00 | 0.00 | 33 | 1005.1 |
| 20260504200003 | 71 | 216 | 2.6 | 13.0 | 0.00 | 0.00 | 0.00 | 34 | 1005.2 |
| 20260504195504 | 72 | 224 | 3.5 | 13.0 | 0.00 | 0.00 | 0.00 | 32 | 1004.9 |
| 20260504195025 | 72 | 223 | 3.5 | 13.0 | 0.00 | 0.00 | 0.00 | 34 | 1005.0 |
| 20260504194503 | 71 | 226 | 1.7 | 12.2 | 0.00 | 0.00 | 0.00 | 36 | 1005.2 |
| 20260504194004 | 70 | 251 | 1.7 | 11.3 | 0.00 | 0.00 | 0.00 | 35 | 1005.2 |
| 20260504193504 | 71 | 227 | 2.6 | 11.3 | 0.00 | 0.00 | 0.00 | 33 | 1005.0 |
| 20260504193003 | 72 | 210 | 2.6 | 7.8 | 0.00 | 0.00 | 0.00 | 32 | 1005.0 |
| 20260504192503 | 72 | 213 | 3.5 | 11.3 | 0.00 | 0.00 | 0.00 | 35 | 1005.1 |
| 20260504192025 | 72 | 211 | 3.5 | 11.3 | 0.00 | 0.00 | 0.00 | 32 | 1005.1 |
| 20260504191503 | 72 | 205 | 2.6 | 11.3 | 0.00 | 0.00 | 0.00 | 32 | 1005.1 |
| 20260504191003 | 72 | 233 | 3.5 | 9.6 | 0.00 | 0.00 | 0.00 | 32 | 1005.1 |
| 20260504190525 | 72 | 225 | 3.5 | 11.3 | 0.00 | 0.00 | 0.00 | 33 | 1005.1 |
| 20260504190004 | 71 | 196 | 3.5 | 11.3 | 0.00 | 0.00 | 0.00 | 34 | 1005.2 |
| 20260504185503 | 71 | 211 | 2.6 | 14.8 | 0.00 | 0.00 | 0.00 | 34 | 1005.0 |
| 20260504185003 | 70 | 215 | 2.6 | 14.8 | 0.00 | 0.00 | 0.00 | 34 | 1005.4 |
| 20260504184504 | 69 | 209 | 2.6 | 7.8 | 0.00 | 0.00 | 0.00 | 39 | 1005.3 |
| 20260504184003 | 68 | 208 | 2.6 | 6.1 | 0.00 | 0.00 | 0.00 | 36 | 1005.2 |
| 20260504183503 | 68 | 202 | 1.7 | 7.0 | 0.00 | 0.00 | 0.00 | 34 | 1005.6 |
| 20260504183004 | 69 | 229 | 2.6 | 7.8 | 0.00 | 0.00 | 0.00 | 34 | 1005.4 |
| 20260504182503 | 69 | 245 | 2.6 | 7.8 | 0.00 | 0.00 | 0.00 | 34 | 1005.6 |
| 20260504182004 | 70 | 231 | 1.7 | 7.0 | 0.00 | 0.00 | 0.00 | 35 | 1005.4 |
| 20260504181503 | 70 | 244 | 1.7 | 5.2 | 0.00 | 0.00 | 0.00 | 33 | 1005.7 |
| 20260504181003 | 70 | 257 | 2.6 | 12.2 | 0.00 | 0.00 | 0.00 | 36 | 1005.4 |
| 20260504180504 | 70 | 221 | 3.5 | 12.2 | 0.00 | 0.00 | 0.00 | 33 | 1005.6 |
| 20260504180025 | 70 | 208 | 3.5 | 8.7 | 0.00 | 0.00 | 0.00 | 33 | 1005.8 |
| 20260504175503 | 71 | 206 | 3.5 | 8.7 | 0.00 | 0.00 | 0.00 | 32 | 1005.5 |
| 20260504175003 | 71 | 202 | 3.5 | 8.7 | 0.00 | 0.00 | 0.00 | 34 | 1005.4 |
| 20260504174504 | 69 | 238 | 3.5 | 12.2 | 0.00 | 0.00 | 0.00 | 33 | 1005.3 |
| 20260504174025 | 70 | 241 | 3.5 | 13.9 | 0.00 | 0.00 | 0.00 | 33 | 1005.7 |
| 20260504173503 | 70 | 228 | 2.6 | 13.9 | 0.00 | 0.00 | 0.00 | 32 | 1005.5 |
| 20260504173003 | 70 | 302 | 2.6 | 9.6 | 0.00 | 0.00 | 0.00 | 36 | 1005.4 |
| 20260504172503 | 70 | 240 | 2.6 | 9.6 | 0.00 | 0.00 | 0.00 | 33 | 1005.8 |
| 20260504172004 | 69 | 206 | 3.5 | 13.0 | 0.00 | 0.00 | 0.00 | 33 | 1005.7 |
| 20260504171503 | 69 | 213 | 2.6 | 13.0 | 0.00 | 0.00 | 0.00 | 33 | 1005.8 |
| 20260504171024 | 69 | 239 | 2.6 | 9.6 | 0.00 | 0.00 | 0.00 | 35 | 1005.6 |
| 20260504170504 | 68 | 245 | 2.6 | 9.6 | 0.00 | 0.00 | 0.00 | 35 | 1005.4 |
| 20260504151003 | 64 | 232 | 3.5 | 11.3 | 0.00 | 0.00 | 0.00 | 35 | 1006.9 |
| 20260504150503 | 65 | 236 | 2.6 | 11.3 | 0.00 | 0.00 | 0.00 | 37 | 1006.7 |
| 20260504141004 | 61 | 203 | 2.6 | 11.3 | 0.00 | 0.00 | 0.00 | 43 | 1007.7 |
| 20260504140504 | 62 | 214 | 2.6 | 11.3 | 0.00 | 0.00 | 0.00 | 41 | 1007.7 |
| 20260504130503 | 58 | 212 | 1.7 | 9.6 | 0.00 | 0.00 | 0.00 | 46 | 1007.9 |
| 20260504110504 | 42 | 193 | 0.9 | 0.9 | 0.00 | 0.01 | 0.00 | 82 | 1008.8 |
| 20260504100503 | 41 | 183 | 0.9 | 2.6 | 0.00 | 0.01 | 0.00 | 80 | 1008.5 |
| 20260504081504 | 41 | 174 | 0.9 | 1.7 | 0.00 | 0.01 | 0.00 | 78 | 1008.5 |
| 20260504081004 | 41 | 174 | 0.0 | 0.9 | 0.00 | 0.01 | 0.00 | 76 | 1008.6 |
| 20260504050504 | 35 | 239 | 0.0 | 0.9 | 0.00 | 0.01 | 0.00 | 90 | 1008.5 |
| 20260504050025 | 35 | 239 | 0.0 | 0.9 | 0.00 | 0.01 | 0.00 | 91 | 1009.0 |
| 20260504045525 | 35 | 239 | 0.9 | 0.9 | 0.00 | 0.01 | 0.00 | 91 | 1008.5 |
| 20260504045004 | 34 | 239 | 0.9 | 1.7 | 0.00 | 0.01 | 0.00 | 90 | 1008.7 |
| 20260504044504 | 33 | 239 | 0.9 | 1.7 | 0.00 | 0.01 | 0.00 | 90 | 1008.8 |
| 20260504044004 | 33 | 239 | 0.0 | 0.9 | 0.00 | 0.01 | 0.00 | 89 | 1008.7 |
| 20260504043504 | 33 | 239 | 0.0 | 0.9 | 0.00 | 0.01 | 0.00 | 89 | 1008.7 |
| 20260504043003 | 33 | 239 | 0.0 | 0.9 | 0.00 | 0.01 | 0.00 | 89 | 1008.5 |
| 20260504042504 | 33 | 0 | 0.0 | 0.0 | 0.00 | 0.01 | 0.00 | 89 | 1008.5 |
| 20260504042004 | 33 | 0 | 0.0 | 0.0 | 0.00 | 0.01 | 0.00 | 89 | 1008.5 |
| 20260504041503 | 33 | 0 | 0.0 | 0.0 | 0.00 | 0.01 | 0.00 | 89 | 1008.5 |
| 20260504041004 | 33 | 0 | 0.0 | 0.0 | 0.00 | 0.01 | 0.00 | 89 | 1008.5 |
| 20260504040504 | 33 | 0 | 0.0 | 0.0 | 0.00 | 0.01 | 0.00 | 89 | 1008.5 |
| 20260504040004 | 33 | 0 | 0.0 | 0.0 | 0.00 | 0.01 | 0.00 | 89 | 1008.5 |
| 20260504035504 | 33 | 0 | 0.0 | 0.0 | 0.00 | 0.01 | 0.01 | 89 | 1008.4 |
| 20260504035004 | 33 | 0 | 0.0 | 0.0 | 0.00 | 0.01 | 0.01 | 89 | 1008.4 |
| 20260504034504 | 33 | 239 | 0.0 | 0.9 | 0.00 | 0.01 | 0.01 | 89 | 1008.6 |
| 20260504034004 | 33 | 239 | 0.9 | 0.9 | 0.00 | 0.01 | 0.01 | 88 | 1008.5 |
| 20260504033504 | 33 | 239 | 0.9 | 1.7 | 0.00 | 0.01 | 0.01 | 89 | 1008.7 |
| 20260504033004 | 33 | 239 | 0.9 | 1.7 | 0.00 | 0.01 | 0.01 | 88 | 1008.3 |
| 20260504032504 | 34 | 239 | 0.9 | 1.7 | 0.00 | 0.01 | 0.01 | 88 | 1008.6 |
| 20260504032004 | 34 | 239 | 0.9 | 1.7 | 0.00 | 0.01 | 0.01 | 88 | 1008.5 |
| 20260504031504 | 34 | 239 | 0.9 | 1.7 | 0.00 | 0.01 | 0.01 | 88 | 1008.5 |
| 20260504031004 | 34 | 239 | 0.9 | 1.7 | 0.00 | 0.01 | 0.01 | 87 | 1008.2 |
| 20260504030504 | 34 | 239 | 0.9 | 1.7 | 0.00 | 0.01 | 0.01 | 87 | 1008.3 |
| 20260504030004 | 34 | 239 | 0.9 | 1.7 | 0.00 | 0.01 | 0.01 | 86 | 1008.3 |
| 20260504025504 | 34 | 239 | 0.9 | 1.7 | 0.00 | 0.01 | 0.01 | 85 | 1008.5 |
| 20260504025003 | 34 | 239 | 0.9 | 0.9 | 0.00 | 0.01 | 0.01 | 85 | 1008.3 |
| 20260504024503 | 34 | 239 | 0.9 | 0.9 | 0.00 | 0.01 | 0.01 | 84 | 1008.2 |
| 20260504024004 | 34 | 239 | 0.9 | 0.9 | 0.00 | 0.01 | 0.01 | 84 | 1008.6 |
| 20260504023503 | 34 | 239 | 0.9 | 0.9 | 0.00 | 0.01 | 0.01 | 84 | 1008.4 |
| 20260504023004 | 34 | 239 | 0.9 | 0.9 | 0.00 | 0.01 | 0.01 | 83 | 1008.4 |
| 20260504022504 | 35 | 239 | 0.9 | 1.7 | 0.00 | 0.01 | 0.01 | 83 | 1008.4 |
| 20260504022004 | 35 | 239 | 0.9 | 1.7 | 0.00 | 0.01 | 0.01 | 83 | 1008.6 |
| 20260504021504 | 35 | 239 | 0.9 | 0.9 | 0.00 | 0.01 | 0.01 | 83 | 1008.5 |
| 20260504021004 | 35 | 239 | 0.9 | 0.9 | 0.00 | 0.01 | 0.01 | 83 | 1008.4 |
| 20260504020504 | 35 | 239 | 0.9 | 0.9 | 0.00 | 0.01 | 0.01 | 83 | 1008.2 |
| 20260504020004 | 35 | 239 | 0.0 | 0.9 | 0.00 | 0.01 | 0.01 | 83 | 1008.3 |
| 20260504015525 | 35 | 239 | 0.9 | 0.9 | 0.00 | 0.01 | 0.01 | 82 | 1008.2 |
| 20260504015004 | 36 | 239 | 0.9 | 0.9 | 0.00 | 0.01 | 0.01 | 82 | 1008.2 |
| 20260504014504 | 36 | 239 | 0.9 | 0.9 | 0.00 | 0.01 | 0.01 | 82 | 1008.2 |
| 20260504014003 | 36 | 239 | 0.9 | 0.9 | 0.00 | 0.01 | 0.01 | 83 | 1008.2 |
| 20260504013504 | 36 | 239 | 0.9 | 0.9 | 0.00 | 0.01 | 0.01 | 82 | 1008.2 |
| 20260504013003 | 36 | 240 | 0.9 | 0.9 | 0.00 | 0.01 | 0.01 | 81 | 1008.3 |
| 20260504012504 | 36 | 240 | 0.9 | 0.9 | 0.00 | 0.01 | 0.01 | 81 | 1008.1 |
| 20260504012004 | 37 | 240 | 0.9 | 0.9 | 0.00 | 0.01 | 0.01 | 81 | 1008.1 |
| 20260504011525 | 37 | 240 | 0.9 | 0.9 | 0.00 | 0.01 | 0.01 | 82 | 1007.8 |
| 20260504011004 | 37 | 240 | 0.9 | 0.9 | 0.00 | 0.01 | 0.01 | 81 | 1008.1 |
| 20260504010504 | 38 | 240 | 0.9 | 0.9 | 0.00 | 0.01 | 0.01 | 80 | 1007.7 |
| 20260504010004 | 38 | 240 | 0.9 | 0.9 | 0.00 | 0.01 | 0.01 | 80 | 1007.7 |
| 20260504005504 | 38 | 240 | 0.9 | 0.9 | 0.00 | 0.01 | 0.01 | 79 | 1007.9 |
| 20260504005004 | 38 | 240 | 0.9 | 0.9 | 0.00 | 0.01 | 0.01 | 79 | 1007.6 |
| 20260504004504 | 39 | 240 | 0.9 | 0.9 | 0.00 | 0.01 | 0.01 | 77 | 1007.8 |
| 20260504004003 | 39 | 240 | 0.9 | 0.9 | 0.00 | 0.01 | 0.01 | 77 | 1007.6 |
| 20260504003525 | 40 | 240 | 0.9 | 0.9 | 0.00 | 0.01 | 0.01 | 75 | 1007.5 |
| 20260504003004 | 40 | 241 | 0.9 | 0.9 | 0.00 | 0.01 | 0.01 | 73 | 1007.8 |
| 20260504002504 | 41 | 243 | 0.9 | 0.9 | 0.00 | 0.01 | 0.01 | 71 | 1007.4 |
| 20260504002003 | 42 | 244 | 0.9 | 0.9 | 0.00 | 0.01 | 0.01 | 70 | 1007.5 |
| 20260504001504 | 43 | 244 | 0.9 | 0.9 | 0.00 | 0.01 | 0.01 | 68 | 1007.6 |
| 20260504001004 | 44 | 244 | 0.0 | 0.9 | 0.00 | 0.01 | 0.01 | 63 | 1007.3 |
| 20260504000525 | 45 | 245 | 0.0 | 0.9 | 0.00 | 0.01 | 0.01 | 60 | 1007.4 |
| 20260504000004 | 46 | 245 | 0.0 | 0.9 | 0.00 | 0.01 | 0.01 | 57 | 1007.5 |
| 20260503235504 | 47 | 245 | 0.0 | 1.7 | 0.00 | 0.01 | 0.01 | 58 | 1007.2 |
| 20260503235025 | 47 | 244 | 0.0 | 1.7 | 0.00 | 0.01 | 0.01 | 52 | 1007.3 |
| 20260503234504 | 47 | 250 | 0.9 | 1.7 | 0.00 | 0.01 | 0.01 | 51 | 1006.9 |
| 20260503234004 | 47 | 304 | 1.7 | 6.1 | 0.00 | 0.01 | 0.01 | 51 | 1006.9 |
| 20260503233525 | 47 | 311 | 1.7 | 7.0 | 0.00 | 0.01 | 0.01 | 49 | 1007.2 |
| 20260503233004 | 48 | 305 | 1.7 | 7.0 | 0.00 | 0.01 | 0.01 | 50 | 1007.0 |
| 20260503232504 | 48 | 310 | 1.7 | 6.1 | 0.00 | 0.01 | 0.01 | 50 | 1006.9 |
| 20260503232004 | 48 | 322 | 2.6 | 8.7 | 0.00 | 0.02 | 0.01 | 48 | 1007.0 |
| 20260503231504 | 48 | 320 | 2.6 | 8.7 | 0.00 | 0.02 | 0.01 | 49 | 1007.0 |
| 20260503231003 | 49 | 305 | 1.7 | 7.8 | 0.00 | 0.02 | 0.01 | 50 | 1006.9 |
| 20260503230504 | 49 | 295 | 1.7 | 7.8 | 0.00 | 0.02 | 0.01 | 46 | 1006.9 |
| 20260503230004 | 49 | 316 | 3.5 | 9.6 | 0.00 | 0.02 | 0.01 | 48 | 1006.6 |
| 20260503225504 | 49 | 326 | 4.3 | 9.6 | 0.00 | 0.02 | 0.01 | 46 | 1007.1 |
| 20260503225004 | 49 | 314 | 3.5 | 9.6 | 0.00 | 0.03 | 0.01 | 45 | 1006.7 |
| 20260503224504 | 49 | 309 | 3.5 | 12.2 | 0.00 | 0.03 | 0.01 | 47 | 1006.6 |
| 20260503224003 | 49 | 314 | 4.3 | 12.2 | 0.00 | 0.04 | 0.01 | 45 | 1006.7 |
| 20260503223525 | 49 | 326 | 3.5 | 8.7 | 0.00 | 0.04 | 0.01 | 45 | 1006.8 |
| 20260503223004 | 50 | 320 | 3.5 | 8.7 | 0.00 | 0.04 | 0.01 | 47 | 1006.6 |
| 20260503222503 | 49 | 318 | 3.5 | 13.0 | 0.00 | 0.04 | 0.01 | 46 | 1006.6 |
| 20260503222004 | 50 | 332 | 5.2 | 13.0 | 0.00 | 0.04 | 0.01 | 44 | 1006.6 |
| 20260503221504 | 50 | 328 | 4.3 | 13.0 | 0.00 | 0.04 | 0.01 | 46 | 1006.4 |
| 20260503221004 | 50 | 333 | 5.2 | 13.9 | 0.00 | 0.04 | 0.01 | 44 | 1006.6 |
| 20260503220504 | 50 | 335 | 5.2 | 13.9 | 0.00 | 0.04 | 0.01 | 44 | 1006.4 |
| 20260503220004 | 50 | 326 | 5.2 | 15.6 | 0.00 | 0.04 | 0.01 | 44 | 1006.5 |
| 20260503215504 | 50 | 323 | 5.2 | 15.6 | 0.00 | 0.04 | 0.01 | 43 | 1006.4 |
| 20260503215004 | 50 | 329 | 5.2 | 15.6 | 0.00 | 0.04 | 0.01 | 45 | 1006.3 |
| 20260503214504 | 50 | 325 | 6.1 | 15.6 | 0.00 | 0.04 | 0.01 | 44 | 1006.3 |
| 20260503214004 | 50 | 306 | 4.3 | 15.6 | 0.00 | 0.04 | 0.01 | 42 | 1006.2 |
| 20260503213504 | 50 | 323 | 5.2 | 12.2 | 0.00 | 0.05 | 0.01 | 43 | 1006.2 |
| 20260503213004 | 50 | 338 | 5.2 | 18.2 | 0.00 | 0.07 | 0.01 | 43 | 1006.0 |
| 20260503212504 | 50 | 331 | 5.2 | 18.2 | 0.00 | 0.09 | 0.01 | 42 | 1005.9 |
| 20260503212004 | 50 | 328 | 6.1 | 13.9 | 0.00 | 0.10 | 0.01 | 43 | 1006.0 |
| 20260503211504 | 50 | 335 | 6.1 | 13.9 | 0.00 | 0.11 | 0.01 | 43 | 1006.2 |
| 20260503211005 | 50 | 343 | 4.3 | 9.6 | 0.00 | 0.11 | 0.01 | 43 | 1005.9 |
| 20260503210025 | 50 | 327 | 4.3 | 15.6 | 0.00 | 0.14 | 0.01 | 43 | 1006.1 |
| 20260503205503 | 50 | 327 | 6.1 | 15.6 | 0.00 | 0.15 | 0.01 | 44 | 1005.7 |
| 20260503205003 | 50 | 328 | 7.0 | 15.6 | 0.00 | 0.15 | 0.01 | 43 | 1005.9 |
| 20260503204524 | 50 | 328 | 6.1 | 14.8 | 0.00 | 0.15 | 0.01 | 43 | 1005.7 |
| 20260503204003 | 50 | 323 | 6.1 | 15.6 | 0.00 | 0.16 | 0.01 | 42 | 1005.5 |
| 20260503203503 | 51 | 319 | 4.3 | 15.6 | 0.00 | 0.16 | 0.01 | 44 | 1005.6 |
| 20260503203003 | 51 | 309 | 3.5 | 13.9 | 0.00 | 0.17 | 0.01 | 43 | 1005.7 |